Wind_Speed
35 35 35 35 35 35 35 36 36 37 37 38 38 38 38 39 39 39 38 37 37 37 37 37 36 36 36 35 35 34 34 33 33 33 33 33 33 32 31 31 31 31 30
35 36 36 36 36 36 36 37 37 38 38 39 39 39 40 40 40 40 40 40 40 40 39 39 39 38 38 38 38 37 37 36 36 35 35 35 35 34 34 33 33 32 32
36 37 37 38 38 38 38 38 38 38 38 39 40 41 41 41 41 41 41 41 41 42 42 41 41 41 41 40 40 40 39 38 38 38 38 37 37 37 36 36 35 34 34
36 37 38 39 39 39 39 39 39 39 39 39 39 40 41 41 41 41 42 42 42 43 44 44 44 43 43 42 42 42 42 42 41 41 40 40 40 39 39 38 38 37 36
38 38 38 39 40 40 40 40 40 40 40 40 40 40 40 41 42 42 42 42 42 43 44 44 44 45 45 45 44 44 44 44 43 43 43 42 42 42 41 41 40 39 38
39 39 39 40 40 41 41 41 41 40 40 40 41 41 41 41 42 42 43 43 43 43 44 44 45 45 46 46 46 46 46 46 46 46 45 45 45 44 44 42 41 41 40
38 38 38 38 39 39 40 40 40 40 41 41 42 42 42 42 43 43 44 44 44 44 44 44 44 44 45 46 46 46 47 48 48 48 48 47 47 46 46 44 44 43 42
37 37 37 37 38 38 39 40 40 40 41 41 42 43 43 44 44 44 45 45 45 46 46 45 44 45 46 46 46 46 46 47 47 48 49 49 49 48 48 47 46 46 45
37 37 37 37 38 39 39 39 40 41 41 42 43 44 44 45 45 45 45 46 47 46 46 46 46 47 47 47 47 47 47 48 48 47 47 48 50 50 50 49 47 47 46
37 37 37 38 39 39 40 40 40 41 42 42 43 44 45 45 46 46 46 46 46 46 46 47 47 46 47 48 48 48 48 49 49 49 48 48 49 49 50 50 49 48 47
38 38 38 39 39 39 39 39 40 41 42 42 43 44 45 46 47 47 46 46 46 47 48 48 49 49 49 49 48 48 48 48 48 48 47 47 47 47 48 49 49 49 49
37 38 38 38 38 38 39 39 40 41 42 42 43 44 44 45 46 47 48 47 47 47 48 49 50 50 50 50 50 49 48 48 48 47 47 46 46 46 47 48 49 49 49
37 37 38 38 38 38 39 39 40 40 41 41 42 43 43 44 44 45 46 47 48 48 48 49 49 50 49 49 49 49 49 49 49 48 48 48 48 49 48 48 49 49 49
37 37 37 38 38 39 39 40 40 40 41 41 41 42 43 43 44 45 46 47 48 48 49 48 49 50 49 49 49 49 49 48 49 49 48 48 49 50 50 49 49 50 50
37 37 37 37 37 38 38 38 38 39 39 40 41 41 42 44 45 46 47 48 48 48 47 47 48 49 49 49 48 49 48 48 49 49 49 48 49 49 50 50 50 51 50
37 37 37 37 37 37 37 37 38 38 39 40 41 41 43 44 46 46 47 47 47 47 47 46 46 47 48 48 47 47 48 48 49 49 49 50 50 49 49 49 49 49 49
36 36 36 36 36 37 37 37 38 38 39 40 41 42 44 45 45 45 45 46 46 46 46 44 44 44 46 47 47 47 48 49 49 50 50 50 51 50 50 50 50 49 49
35 35 35 35 36 36 36 37 38 38 39 40 41 42 44 45 44 45 45 45 44 44 44 44 43 44 45 46 46 47 49 50 50 50 51 51 51 52 51 51 51 51 50
35 35 35 36 36 36 37 37 38 38 39 40 41 42 43 43 43 43 43 43 43 43 43 44 44 45 46 46 47 47 48 48 50 51 51 52 52 53 52 51 50 50 50
35 35 35 35 36 36 37 37 38 38 39 40 40 41 41 42 42 42 42 42 43 43 43 43 44 46 47 47 47 47 48 47 49 50 51 52 52 53 52 51 50 50 50
34 34 35 36 36 37 37 38 38 39 39 40 40 40 40 41 41 41 41 41 42 42 43 43 44 45 46 46 46 47 47 46 47 48 50 51 52 53 52 53 52 51 50
35 35 36 36 37 37 37 38 38 38 39 39 39 39 40 40 40 40 40 40 41 41 42 43 43 43 44 45 46 46 45 45 46 47 49 49 50 51 52 52 52 51 51
34 35 35 36 36 37 37 38 38 38 39 39 39 39 39 40 40 40 40 40 41 41 42 43 43 44 44 44 44 43 44 44 45 46 48 48 49 49 49 49 49 49 49
35 35 35 35 36 37 37 38 38 39 40 40 41 40 40 40 40 40 40 41 41 42 42 43 43 42 42 42 43 44 44 45 45 46 47 47 47 46 45 46 47 47 46
35 35 35 35 36 36 37 38 38 39 40 41 41 41 41 41 41 41 41 41 42 42 43 43 42 41 41 41 42 43 44 44 43 43 45 45 44 44 43 44 44 44 45
36 36 36 36 36 37 38 38 39 40 40 40 41 42 42 42 42 42 41 41 41 41 41 41 41 40 41 41 41 42 43 42 42 42 43 43 43 43 42 42 42 43 43
Wind_Direction
269 270 271 270 270 270 269 269 269 269 270 270 270 270 270 270 270 270 271 271 271 271 271 271 271 271 272 273 274 274 274 274 274 274 275 275 277 279 280 281 282 282 282
269 269 270 271 271 271 271 270 270 270 270 271 271 271 270 269 269 269 269 270 270 270 270 271 271 271 271 272 272 274 273 273 273 274 274 274 275 277 279 280 281 281 282
269 270 270 271 271 272 271 270 270 270 272 272 271 271 271 270 270 270 270 269 269 269 269 270 270 271 270 271 271 272 272 272 272 272 273 274 275 276 277 278 279 280 280
272 271 272 272 272 272 272 271 270 271 272 272 272 271 271 270 270 270 270 270 270 270 269 270 270 270 270 271 271 271 271 272 272 272 272 273 274 275 276 277 277 278 279
272 273 274 274 273 273 272 272 272 271 271 272 272 272 271 271 270 269 270 270 270 270 270 269 269 269 270 270 270 271 271 271 271 272 272 272 273 273 274 275 275 276 277
273 273 274 275 275 274 273 272 271 271 271 271 271 271 270 272 270 270 270 270 270 271 271 270 270 270 269 269 270 270 270 271 271 271 272 272 272 273 273 274 274 275 275
274 275 276 276 276 275 274 274 273 272 271 271 271 271 270 271 272 271 270 270 270 271 271 270 270 270 270 270 270 270 271 271 271 271 271 271 271 272 272 272 272 273 274
276 278 277 277 276 276 275 275 273 273 272 272 272 271 270 271 272 272 270 269 270 270 270 270 270 269 270 271 271 270 270 271 271 271 271 271 270 270 270 270 271 272 272
277 278 278 278 278 278 277 276 275 273 272 273 273 273 272 271 271 271 271 271 270 270 269 271 272 271 270 270 271 270 270 270 271 271 272 272 271 270 270 269 271 271 271
278 278 279 279 279 278 278 277 276 274 274 274 274 274 274 273 272 271 271 271 270 269 270 270 270 272 272 271 271 272 271 270 270 271 272 272 271 269 269 269 269 270 271
279 279 279 280 280 280 279 278 277 276 275 275 275 275 275 275 274 273 270 270 271 271 270 270 270 271 272 273 272 272 271 270 271 271 271 272 271 270 270 269 269 269 269
280 281 280 280 280 280 279 278 278 277 276 276 276 276 276 276 276 274 272 270 271 272 272 271 270 272 273 274 273 272 271 269 270 270 269 270 272 272 272 269 269 270 269
280 281 280 279 280 280 280 279 279 278 278 278 278 278 278 278 277 276 274 272 272 273 273 272 271 272 272 273 273 272 272 269 268 270 270 270 271 272 272 270 269 269 269
279 280 281 280 280 280 280 280 280 279 278 279 279 279 279 280 279 278 276 274 273 273 274 273 272 272 272 272 272 272 272 270 268 269 269 270 271 271 272 272 271 270 269
279 280 281 281 281 281 282 281 281 281 280 280 280 280 280 281 281 280 278 276 275 274 274 274 273 273 273 272 271 270 270 269 269 268 269 269 270 271 272 273 273 271 270
280 280 280 281 281 282 282 282 282 281 281 281 282 282 282 282 281 281 278 276 276 275 275 274 274 274 272 271 271 269 268 267 268 269 268 269 270 270 271 272 273 273 272
281 281 281 282 282 283 283 283 283 282 282 282 283 283 284 284 282 281 279 277 276 276 276 274 274 274 271 270 270 270 269 267 268 269 268 269 270 271 272 272 272 273 273
281 282 282 283 283 283 284 285 285 285 284 285 284 285 286 286 284 282 280 278 276 276 276 274 274 274 272 271 272 273 271 268 268 268 269 269 270 271 272 272 272 272 272
281 282 283 283 284 285 286 286 286 286 286 286 286 287 287 286 284 283 281 279 277 277 277 276 275 274 274 274 273 273 272 270 269 269 270 271 272 272 272 272 272 273 272
282 283 284 284 285 286 287 287 286 287 288 288 288 288 288 287 285 283 282 280 279 278 278 277 276 275 275 275 274 274 273 271 271 271 271 272 273 273 272 271 272 272 272
283 283 284 285 286 286 287 288 288 288 290 290 290 289 289 287 286 284 284 281 281 280 279 279 278 276 276 276 275 275 274 272 272 273 272 272 272 272 271 272 272 272 272
285 285 286 286 287 287 288 289 290 290 290 292 291 290 290 289 287 286 286 284 283 282 281 280 278 278 278 277 276 275 274 274 275 274 274 272 272 272 271 271 272 271 272
288 288 288 288 289 290 291 292 292 292 292 292 293 292 291 290 288 286 286 285 285 284 283 282 280 279 279 278 278 278 276 277 278 277 275 273 273 273 271 270 270 271 271
288 288 288 289 290 291 292 293 293 293 293 292 292 292 291 290 289 287 287 286 286 285 285 284 283 282 281 280 278 278 279 279 279 277 277 275 274 273 271 270 270 269 268
289 289 289 290 290 291 292 293 294 294 293 292 292 292 291 289 288 287 287 287 287 286 285 284 282 281 282 283 282 282 281 281 280 277 277 277 275 273 271 270 268 268 267
289 289 290 290 291 292 292 293 294 294 294 293 292 292 291 291 290 288 287 287 287 286 285 283 282 281 282 282 284 285 284 283 282 280 278 277 276 274 271 269 268 267 266
Height
5813 5813 5813 5813 5813 5814 5814 5814 5814 5815 5815 5815 5816 5816 5817 5818 5818 5819 5820 5821 5821 5821 5822 5822 5823 5823 5823 5823 5823 5824 5823 5824 5823 5823 5823 5822 5822 5821 5821 5820 5819 5818 5818
5804 5805 5805 5805 5805 5805 5805 5805 5805 5806 5806 5806 5807 5807 5808 5808 5809 5810 5811 5811 5812 5812 5813 5814 5814 5815 5815 5815 5815 5815 5815 5815 5816 5815 5815 5815 5814 5814 5814 5813 5812 5811 5811
5795 5796 5796 5796 5796 5796 5796 5796 5796 5797 5797 5797 5798 5798 5798 5799 5800 5800 5801 5802 5802 5803 5804 5804 5804 5805 5805 5806 5806 5806 5807 5807 5807 5807 5807 5807 5806 5806 5806 5805 5805 5804 5803
5787 5787 5788 5787 5787 5787 5787 5787 5787 5787 5788 5788 5788 5788 5789 5789 5790 5790 5791 5791 5792 5793 5794 5794 5795 5795 5795 5796 5797 5797 5797 5797 5798 5798 5798 5798 5798 5797 5797 5797 5796 5796 5795
5778 5779 5778 5778 5777 5777 5777 5777 5778 5778 5778 5778 5779 5779 5779 5779 5779 5780 5780 5781 5781 5782 5783 5784 5784 5785 5785 5786 5786 5787 5787 5787 5788 5788 5788 5788 5788 5788 5788 5787 5787 5787 5786
5769 5769 5768 5768 5767 5767 5767 5767 5767 5768 5768 5768 5768 5769 5769 5769 5769 5769 5770 5770 5771 5771 5772 5773 5774 5774 5774 5775 5775 5776 5777 5777 5777 5777 5777 5778 5778 5778 5778 5777 5777 5777 5776
5760 5759 5759 5759 5758 5758 5757 5757 5757 5757 5758 5757 5758 5758 5759 5758 5759 5759 5759 5760 5760 5761 5761 5762 5763 5763 5763 5764 5764 5765 5765 5766 5766 5766 5766 5766 5767 5767 5767 5767 5767 5766 5766
5751 5750 5750 5749 5749 5748 5747 5747 5747 5747 5747 5747 5747 5747 5748 5749 5748 5748 5748 5749 5749 5750 5750 5750 5751 5752 5752 5752 5753 5753 5754 5754 5754 5754 5754 5754 5755 5755 5755 5755 5755 5755 5755
5742 5741 5741 5740 5739 5738 5738 5737 5736 5736 5736 5736 5735 5735 5736 5737 5737 5738 5737 5737 5738 5738 5738 5739 5739 5740 5740 5740 5741 5741 5741 5742 5742 5742 5742 5742 5742 5742 5743 5743 5743 5743 5743
5733 5732 5732 5731 5730 5729 5728 5727 5726 5725 5725 5725 5725 5724 5724 5724 5725 5726 5726 5726 5726 5726 5726 5727 5727 5727 5727 5727 5728 5728 5728 5728 5729 5729 5729 5729 5729 5729 5730 5730 5731 5731 5731
5724 5723 5722 5721 5720 5719 5717 5716 5716 5715 5714 5714 5713 5713 5712 5712 5711 5712 5713 5714 5713 5714 5714 5714 5715 5715 5715 5715 5715 5715 5715 5716 5716 5716 5716 5716 5716 5716 5717 5717 5717 5718 5718
5716 5714 5713 5712 5710 5709 5708 5706 5705 5704 5704 5703 5702 5701 5701 5700 5699 5699 5700 5701 5701 5701 5701 5701 5702 5702 5702 5702 5702 5702 5703 5703 5703 5703 5704 5704 5704 5704 5703 5704 5704 5704 5705
5707 5705 5704 5702 5701 5699 5698 5696 5695 5694 5693 5692 5691 5690 5689 5688 5687 5686 5686 5687 5688 5688 5688 5688 5688 5688 5689 5689 5689 5689 5689 5690 5690 5690 5691 5691 5691 5691 5691 5690 5690 5691 5691
5698 5696 5695 5693 5691 5690 5688 5686 5685 5684 5683 5681 5680 5679 5678 5676 5675 5674 5673 5673 5674 5675 5675 5675 5675 5675 5675 5674 5674 5674 5675 5676 5677 5677 5677 5677 5677 5677 5677 5677 5676 5676 5677
5689 5688 5685 5684 5682 5680 5678 5676 5675 5674 5672 5671 5670 5668 5666 5665 5663 5661 5660 5660 5660 5661 5662 5662 5662 5661 5661 5660 5660 5660 5661 5662 5662 5663 5663 5663 5663 5664 5664 5663 5663 5662 5662
5680 5678 5676 5675 5673 5671 5669 5667 5665 5664 5662 5661 5659 5657 5655 5653 5651 5649 5648 5647 5646 5647 5648 5649 5648 5648 5647 5646 5646 5646 5647 5648 5648 5648 5649 5649 5649 5649 5649 5649 5648 5648 5647
5671 5669 5667 5665 5663 5662 5660 5658 5656 5654 5652 5650 5648 5646 5643 5641 5639 5637 5635 5634 5634 5634 5634 5635 5634 5634 5633 5633 5632 5632 5632 5633 5634 5634 5634 5634 5634 5634 5634 5634 5633 5633 5632
5662 5660 5658 5656 5654 5652 5650 5648 5646 5644 5642 5640 5637 5634 5632 5629 5627 5625 5623 5622 5621 5621 5621 5622 5621 5620 5620 5619 5619 5618 5618 5618 5619 5620 5619 5619 5619 5619 5618 5618 5618 5618 5617
5652 5651 5649 5647 5645 5643 5641 5639 5636 5634 5632 5629 5626 5623 5620 5617 5615 5613 5611 5610 5609 5609 5608 5608 5608 5607 5606 5605 5605 5604 5603 5603 5603 5604 5604 5604 5603 5602 5602 5602 5602 5602 5602
5643 5641 5640 5638 5636 5634 5631 5629 5627 5624 5621 5618 5615 5612 5609 5606 5604 5601 5600 5598 5597 5596 5596 5595 5595 5594 5592 5591 5590 5589 5589 5588 5588 5588 5588 5587 5587 5586 5586 5587 5587 5587 5586
5634 5632 5630 5628 5626 5624 5621 5619 5616 5614 5611 5608 5605 5601 5598 5595 5593 5591 5589 5587 5586 5584 5583 5583 5582 5580 5579 5577 5576 5576 5575 5574 5573 5572 5573 5572 5572 5571 5570 5570 5570 5570 5570
5624 5622 5620 5618 5616 5614 5611 5608 5606 5603 5600 5597 5594 5591 5588 5585 5582 5580 5578 5576 5575 5573 5572 5570 5569 5568 5566 5564 5563 5561 5560 5560 5560 5560 5559 5558 5556 5555 5555 5554 5554 5554 5554
5615 5613 5611 5608 5606 5603 5601 5598 5595 5592 5590 5587 5584 5580 5577 5574 5571 5569 5567 5565 5563 5561 5559 5558 5556 5555 5553 5552 5550 5549 5547 5545 5544 5543 5542 5543 5541 5540 5539 5538 5538 5539 5539
5605 5603 5601 5598 5596 5593 5590 5587 5584 5582 5579 5575 5572 5569 5566 5564 5561 5558 5557 5554 5552 5549 5547 5545 5543 5541 5539 5537 5536 5535 5533 5532 5530 5527 5526 5527 5526 5526 5525 5524 5523 5523 5524
5596 5593 5591 5588 5586 5583 5580 5577 5574 5571 5568 5564 5561 5558 5555 5552 5549 5547 5545 5543 5540 5537 5534 5531 5529 5528 5526 5524 5522 5521 5519 5518 5517 5515 5512 5512 5512 5512 5512 5510 5509 5508 5509
5585 5583 5580 5578 5575 5572 5569 5566 5563 5559 5556 5553 5549 5546 5543 5540 5537 5534 5532 5530 5528 5525 5522 5519 5517 5515 5513 5511 5509 5507 5505 5503 5502 5501 5499 5498 5497 5495 5497 5498 5496 5495 5494